Time,TemperatureF,DewpointF,PressureIn,WindDirection,WindDirectionDegrees,WindSpeedMPH,WindSpeedGustMPH,Humidity,HourlyPrecipIn,Conditions,Clouds,dailyrainin,SoftwareType,DateUTC
2013-02-01 00:00:00,18.9,8.1,30.48,NE,54,0.0,3.0,62,0.00,,OVC100,0.00,VWS V14.01,2013-02-01 06:00:00,
2013-02-01 00:02:00,19.0,8.5,30.48,NE,54,0.0,0.0,63,0.00,,SCT100,0.00,VWS V14.01,2013-02-01 06:02:00,
2013-02-01 00:05:00,18.9,8.4,30.48,South,169,0.0,1.0,63,0.00,,OVC100,0.00,VWS V14.01,2013-02-01 06:05:00,
2013-02-01 00:07:00,18.9,8.1,30.48,East,96,1.0,2.0,62,0.00,,SCT100,0.00,VWS V14.01,2013-02-01 06:07:00,
2013-02-01 00:10:00,18.9,8.1,30.48,ESE,108,1.0,2.0,62,0.00,,OVC100,0.00,VWS V14.01,2013-02-01 06:10:00,
2013-02-01 00:12:00,18.8,8.3,30.48,East,85,2.0,2.0,63,0.00,,SCT100,0.00,VWS V14.01,2013-02-01 06:12:00,
2013-02-01 00:15:00,18.8,7.9,30.47,ENE,73,1.0,2.0,62,0.00,,OVC100,0.00,VWS V14.01,2013-02-01 06:15:00,
2013-02-01 00:17:00,18.7,8.2,30.47,NNE,22,2.0,2.0,63,0.00,,SCT100,0.00,VWS V14.01,2013-02-01 06:17:00,
2013-02-01 00:20:00,18.6,8.1,30.47,ENE,57,0.0,2.0,63,0.00,,OVC100,0.00,VWS V14.01,2013-02-01 06:20:00,
2013-02-01 00:22:00,18.5,7.7,30.47,SSE,150,1.0,2.0,62,0.00,,SCT100,0.00,VWS V14.01,2013-02-01 06:22:00,
2013-02-01 00:25:00,18.4,7.6,30.47,SSE,150,0.0,2.0,62,0.00,,OVC100,0.00,VWS V14.01,2013-02-01 06:25:00,
2013-02-01 00:27:00,18.2,7.7,30.47,SSE,151,0.0,1.0,63,0.00,,SCT100,0.00,VWS V14.01,2013-02-01 06:27:00,
2013-02-01 00:30:00,18.1,7.6,30.47,SSE,150,0.0,1.0,63,0.00,,OVC100,0.00,VWS V14.01,2013-02-01 06:30:00,
2013-02-01 00:32:00,18.1,7.6,30.47,ESE,107,0.0,1.0,63,0.00,,SCT100,0.00,VWS V14.01,2013-02-01 06:32:00,
2013-02-01 00:35:00,18.0,7.9,30.47,ESE,107,1.0,1.0,64,0.00,,OVC100,0.00,VWS V14.01,2013-02-01 06:35:00,
2013-02-01 00:37:00,18.0,7.9,30.46,ESE,107,0.0,1.0,64,0.00,,OVC100,0.00,VWS V14.01,2013-02-01 06:37:00,
2013-02-01 00:40:00,17.9,7.8,30.46,ESE,108,0.0,1.0,64,0.00,,BKN150,0.00,VWS V14.01,2013-02-01 06:40:00,
2013-02-01 00:42:00,17.9,7.8,30.47,ESE,108,0.0,0.0,64,0.00,,OVC100,0.00,VWS V14.01,2013-02-01 06:42:00,
2013-02-01 00:45:00,17.7,7.6,30.47,ESE,107,0.0,0.0,64,0.00,,BKN150,0.00,VWS V14.01,2013-02-01 06:45:00,
2013-02-01 00:47:00,17.6,7.5,30.47,ESE,107,1.0,1.0,64,0.00,,OVC100,0.00,VWS V14.01,2013-02-01 06:47:00,
2013-02-01 00:50:00,17.6,7.5,30.47,SSW,205,0.0,1.0,64,0.00,,BKN150,0.00,VWS V14.01,2013-02-01 06:50:00,
2013-02-01 00:52:00,17.5,7.4,30.47,SSW,205,0.0,0.0,64,0.00,,OVC100,0.00,VWS V14.01,2013-02-01 06:52:00,
2013-02-01 00:55:00,17.5,7.4,30.46,SSW,205,1.0,1.0,64,0.00,,BKN150,0.00,VWS V14.01,2013-02-01 06:55:00,
2013-02-01 00:57:00,17.5,7.8,30.46,SE,138,1.0,1.0,65,0.00,,OVC100,0.00,VWS V14.01,2013-02-01 06:57:00,
2013-02-01 01:00:00,17.5,7.4,30.46,SE,139,0.0,1.0,64,0.00,,BKN150,0.00,VWS V14.01,2013-02-01 07:00:00,
2013-02-01 01:02:00,17.4,7.3,30.46,SE,139,0.0,0.0,64,0.00,,OVC100,0.00,VWS V14.01,2013-02-01 07:02:00,
2013-02-01 01:05:00,17.2,7.1,30.46,SE,138,0.0,0.0,64,0.00,,BKN150,0.00,VWS V14.01,2013-02-01 07:05:00,
2013-02-01 01:07:00,17.1,7.4,30.47,SE,138,0.0,1.0,65,0.00,,OVC100,0.00,VWS V14.01,2013-02-01 07:07:00,
2013-02-01 01:10:00,17.1,7.4,30.47,SE,138,0.0,1.0,65,0.00,,BKN150,0.00,VWS V14.01,2013-02-01 07:10:00,
2013-02-01 01:12:00,17.0,7.3,30.47,SE,139,1.0,1.0,65,0.00,,OVC100,0.00,VWS V14.01,2013-02-01 07:12:00,
2013-02-01 01:15:00,17.0,7.6,30.46,SE,139,1.0,1.0,66,0.00,,BKN150,0.00,VWS V14.01,2013-02-01 07:15:00,
2013-02-01 01:17:00,16.9,7.5,30.46,SE,139,1.0,1.0,66,0.00,,OVC100,0.00,VWS V14.01,2013-02-01 07:17:00,
2013-02-01 01:20:00,16.9,7.5,30.45,SE,139,0.0,1.0,66,0.00,,BKN150,0.00,VWS V14.01,2013-02-01 07:20:00,
2013-02-01 01:22:00,16.9,7.5,30.46,SE,138,0.0,1.0,66,0.00,,OVC100,0.00,VWS V14.01,2013-02-01 07:22:00,
2013-02-01 01:25:00,16.8,7.4,30.46,SSE,150,1.0,1.0,66,0.00,,BKN150,0.00,VWS V14.01,2013-02-01 07:25:00,
2013-02-01 01:27:00,16.8,7.4,30.47,SSE,149,0.0,1.0,66,0.00,,OVC100,0.00,VWS V14.01,2013-02-01 07:27:00,
2013-02-01 01:30:00,16.8,7.4,30.47,SSW,208,1.0,2.0,66,0.00,,BKN150,0.00,VWS V14.01,2013-02-01 07:30:00,
2013-02-01 01:32:00,16.7,7.7,30.47,SSW,211,1.0,2.0,67,0.00,,CLR,0.00,VWS V14.01,2013-02-01 07:32:00,
2013-02-01 01:35:00,16.7,8.0,30.48,SSW,208,0.0,2.0,68,0.00,,BKN150,0.00,VWS V14.01,2013-02-01 07:35:00,
2013-02-01 01:37:00,16.5,8.1,30.47,SSW,208,0.0,0.0,69,0.00,,CLR,0.00,VWS V14.01,2013-02-01 07:37:00,
2013-02-01 01:40:00,16.3,7.9,30.48,SSW,211,1.0,1.0,69,0.00,,BKN150,0.00,VWS V14.01,2013-02-01 07:40:00,
2013-02-01 01:42:00,16.2,8.1,30.48,SW,217,1.0,2.0,70,0.00,,CLR,0.00,VWS V14.01,2013-02-01 07:42:00,
2013-02-01 01:45:00,16.0,8.0,30.48,SW,226,0.0,2.0,70,0.00,,BKN150,0.00,VWS V14.01,2013-02-01 07:45:00,
2013-02-01 01:47:00,15.9,8.2,30.49,SW,219,1.0,2.0,71,0.00,,CLR,0.00,VWS V14.01,2013-02-01 07:47:00,
2013-02-01 01:50:00,15.8,8.1,30.49,South,184,1.0,2.0,71,0.00,,BKN150,0.00,VWS V14.01,2013-02-01 07:50:00,
2013-02-01 01:52:00,15.8,8.4,30.49,SSW,207,0.0,1.0,72,0.00,,CLR,0.00,VWS V14.01,2013-02-01 07:52:00,
2013-02-01 01:55:00,15.7,8.3,30.48,SSW,207,0.0,1.0,72,0.00,,BKN150,0.00,VWS V14.01,2013-02-01 07:55:00,
2013-02-01 01:57:00,15.6,8.2,30.48,South,169,1.0,2.0,72,0.00,,CLR,0.00,VWS V14.01,2013-02-01 07:57:00,
2013-02-01 02:00:00,15.6,8.5,30.48,SSW,201,1.0,3.0,73,0.00,,BKN150,0.00,VWS V14.01,2013-02-01 08:00:00,
2013-02-01 02:02:00,15.6,8.5,30.48,South,188,0.0,1.0,73,0.00,,CLR,0.00,VWS V14.01,2013-02-01 08:02:00,
2013-02-01 02:05:00,15.6,8.5,30.48,SSW,197,1.0,2.0,73,0.00,,BKN150,0.00,VWS V14.01,2013-02-01 08:05:00,
2013-02-01 02:07:00,15.6,8.5,30.49,South,170,1.0,2.0,73,0.00,,CLR,0.00,VWS V14.01,2013-02-01 08:07:00,
2013-02-01 02:10:00,15.7,8.6,30.49,SSE,158,1.0,4.0,73,0.00,,BKN150,0.00,VWS V14.01,2013-02-01 08:10:00,
2013-02-01 02:12:00,15.7,8.9,30.49,SSW,195,2.0,4.0,74,0.00,,CLR,0.00,VWS V14.01,2013-02-01 08:12:00,
2013-02-01 02:15:00,15.8,9.0,30.48,SSE,154,2.0,4.0,74,0.00,,BKN150,0.00,VWS V14.01,2013-02-01 08:15:00,
2013-02-01 02:17:00,15.8,9.0,30.48,South,177,1.0,2.0,74,0.00,,CLR,0.00,VWS V14.01,2013-02-01 08:17:00,
2013-02-01 02:20:00,15.8,9.0,30.48,SSE,150,3.0,3.0,74,0.00,,BKN150,0.00,VWS V14.01,2013-02-01 08:20:00,
2013-02-01 02:22:00,15.9,9.1,30.48,South,175,2.0,4.0,74,0.00,,CLR,0.00,VWS V14.01,2013-02-01 08:22:00,
2013-02-01 02:25:00,15.9,9.4,30.48,SSW,204,2.0,4.0,75,0.00,,BKN150,0.00,VWS V14.01,2013-02-01 08:25:00,
2013-02-01 02:27:00,15.9,9.1,30.48,ESE,117,1.0,3.0,74,0.00,,CLR,0.00,VWS V14.01,2013-02-01 08:27:00,
2013-02-01 02:30:00,15.9,9.1,30.48,South,188,0.0,3.0,74,0.00,,BKN150,0.00,VWS V14.01,2013-02-01 08:30:00,
2013-02-01 02:32:00,15.9,9.1,30.48,South,176,2.0,3.0,74,0.00,,CLR,0.00,VWS V14.01,2013-02-01 08:32:00,
2013-02-01 02:35:00,15.9,9.4,30.48,South,191,1.0,3.0,75,0.00,,BKN150,0.00,VWS V14.01,2013-02-01 08:35:00,
2013-02-01 02:37:00,15.8,9.3,30.49,SSW,210,1.0,2.0,75,0.00,,CLR,0.00,VWS V14.01,2013-02-01 08:37:00,
2013-02-01 02:40:00,15.8,9.3,30.49,SSW,205,0.0,2.0,75,0.00,,BKN150,0.00,VWS V14.01,2013-02-01 08:40:00,
2013-02-01 02:42:00,15.7,9.2,30.49,SSW,205,1.0,1.0,75,0.00,,CLR,0.00,VWS V14.01,2013-02-01 08:42:00,
2013-02-01 02:45:00,15.7,9.2,30.49,SSW,206,0.0,1.0,75,0.00,,BKN150,0.00,VWS V14.01,2013-02-01 08:45:00,
2013-02-01 02:47:00,15.6,9.1,30.49,SSW,205,0.0,0.0,75,0.00,,CLR,0.00,VWS V14.01,2013-02-01 08:47:00,
2013-02-01 02:50:00,15.5,9.0,30.49,SSW,200,1.0,1.0,75,0.00,,BKN150,0.00,VWS V14.01,2013-02-01 08:50:00,
2013-02-01 02:52:00,15.5,9.3,30.49,South,184,0.0,2.0,76,0.00,,CLR,0.00,VWS V14.01,2013-02-01 08:52:00,
2013-02-01 02:55:00,15.5,9.3,30.48,SSW,200,0.0,2.0,76,0.00,,BKN150,0.00,VWS V14.01,2013-02-01 08:55:00,
2013-02-01 02:57:00,15.4,9.2,30.48,SSW,200,0.0,1.0,76,0.00,,CLR,0.00,VWS V14.01,2013-02-01 08:57:00,
2013-02-01 03:00:00,15.4,9.2,30.48,South,169,0.0,1.0,76,0.00,,BKN150,0.00,VWS V14.01,2013-02-01 09:00:00,
2013-02-01 03:02:00,15.3,9.1,30.48,South,169,0.0,0.0,76,0.00,,CLR,0.00,VWS V14.01,2013-02-01 09:02:00,
2013-02-01 03:05:00,15.3,9.1,30.48,South,169,0.0,1.0,76,0.00,,BKN150,0.00,VWS V14.01,2013-02-01 09:05:00,
2013-02-01 03:07:00,15.2,9.0,30.48,South,169,0.0,0.0,76,0.00,,CLR,0.00,VWS V14.01,2013-02-01 09:07:00,
2013-02-01 03:10:00,15.1,8.9,30.48,South,169,0.0,0.0,76,0.00,,BKN150,0.00,VWS V14.01,2013-02-01 09:10:00,
2013-02-01 03:12:00,15.1,8.9,30.48,South,169,0.0,0.0,76,0.00,,CLR,0.00,VWS V14.01,2013-02-01 09:12:00,
2013-02-01 03:15:00,15.1,9.2,30.48,South,169,0.0,0.0,77,0.00,,BKN150,0.00,VWS V14.01,2013-02-01 09:15:00,
2013-02-01 03:17:00,15.2,9.3,30.48,South,169,1.0,1.0,77,0.00,,CLR,0.00,VWS V14.01,2013-02-01 09:17:00,
2013-02-01 03:20:00,15.1,8.9,30.48,South,169,0.0,1.0,76,0.00,,BKN150,0.00,VWS V14.01,2013-02-01 09:20:00,
2013-02-01 03:22:00,15.2,9.0,30.48,SE,131,1.0,1.0,76,0.00,,CLR,0.00,VWS V14.01,2013-02-01 09:22:00,
2013-02-01 03:25:00,15.2,9.0,30.48,SE,131,0.0,1.0,76,0.00,,BKN150,0.00,VWS V14.01,2013-02-01 09:25:00,
2013-02-01 03:27:00,15.2,9.0,30.48,SE,131,0.0,0.0,76,0.00,,CLR,0.00,VWS V14.01,2013-02-01 09:27:00,
2013-02-01 03:30:00,15.1,8.9,30.48,SE,131,0.0,0.0,76,0.00,,BKN150,0.00,VWS V14.01,2013-02-01 09:30:00,
2013-02-01 03:32:00,15.0,8.8,30.48,SE,131,0.0,0.0,76,0.00,,CLR,0.00,VWS V14.01,2013-02-01 09:32:00,
2013-02-01 03:35:00,14.9,9.0,30.47,SE,131,1.0,1.0,77,0.00,,BKN150,0.00,VWS V14.01,2013-02-01 09:35:00,
2013-02-01 03:37:00,14.9,9.0,30.47,SE,131,0.0,1.0,77,0.00,,CLR,0.00,VWS V14.01,2013-02-01 09:37:00,
2013-02-01 03:40:00,15.0,9.1,30.47,SE,131,1.0,1.0,77,0.00,,BKN150,0.00,VWS V14.01,2013-02-01 09:40:00,
2013-02-01 03:42:00,15.0,9.1,30.47,SE,143,1.0,2.0,77,0.00,,CLR,0.00,VWS V14.01,2013-02-01 09:42:00,
2013-02-01 03:45:00,15.0,9.1,30.47,SSE,150,0.0,2.0,77,0.00,,BKN150,0.00,VWS V14.01,2013-02-01 09:45:00,
2013-02-01 03:47:00,15.0,9.1,30.47,SSE,149,1.0,1.0,77,0.00,,CLR,0.00,VWS V14.01,2013-02-01 09:47:00,
2013-02-01 03:50:00,14.9,9.3,30.48,SSE,156,1.0,2.0,78,0.00,,BKN150,0.00,VWS V14.01,2013-02-01 09:50:00,
2013-02-01 03:52:00,14.9,9.3,30.47,SSE,161,1.0,2.0,78,0.00,,CLR,0.00,VWS V14.01,2013-02-01 09:52:00,
2013-02-01 03:55:00,14.8,9.2,30.48,SSE,163,1.0,2.0,78,0.00,,BKN150,0.00,VWS V14.01,2013-02-01 09:55:00,
2013-02-01 03:57:00,14.8,9.2,30.48,South,169,2.0,3.0,78,0.00,,CLR,0.00,VWS V14.01,2013-02-01 09:57:00,
2013-02-01 04:00:00,14.9,9.6,30.48,SSW,200,1.0,4.0,79,0.00,,BKN150,0.00,VWS V14.01,2013-02-01 10:00:00,
2013-02-01 04:02:00,14.9,9.3,30.47,South,181,0.0,1.0,78,0.00,,CLR,0.00,VWS V14.01,2013-02-01 10:02:00,
2013-02-01 04:05:00,14.9,9.3,30.48,SSW,199,1.0,3.0,78,0.00,,BKN150,0.00,VWS V14.01,2013-02-01 10:05:00,
2013-02-01 04:07:00,14.9,9.3,30.47,South,187,1.0,2.0,78,0.00,,CLR,0.00,VWS V14.01,2013-02-01 10:07:00,
2013-02-01 04:10:00,14.9,9.0,30.47,SSW,198,2.0,2.0,77,0.00,,BKN150,0.00,VWS V14.01,2013-02-01 10:10:00,
2013-02-01 04:12:00,14.9,9.0,30.47,South,190,1.0,3.0,77,0.00,,CLR,0.00,VWS V14.01,2013-02-01 10:12:00,
2013-02-01 04:15:00,14.9,9.0,30.47,SSW,210,1.0,3.0,77,0.00,,BKN150,0.00,VWS V14.01,2013-02-01 10:15:00,
2013-02-01 04:17:00,14.9,9.0,30.47,South,177,1.0,3.0,77,0.00,,CLR,0.00,VWS V14.01,2013-02-01 10:17:00,
2013-02-01 04:20:00,14.9,9.0,30.47,SSW,212,1.0,3.0,77,0.00,,BKN150,0.00,VWS V14.01,2013-02-01 10:20:00,
2013-02-01 04:21:00,14.9,8.7,30.47,SSW,212,0.0,1.0,76,0.00,,CLR,0.00,VWS V14.01,2013-02-01 10:21:00,
2013-02-01 04:25:00,14.8,8.9,30.47,South,186,0.0,2.0,77,0.00,,BKN150,0.00,VWS V14.01,2013-02-01 10:25:00,
2013-02-01 04:26:00,14.8,8.9,30.47,SSW,212,3.0,3.0,77,0.00,,CLR,0.00,VWS V14.01,2013-02-01 10:26:00,
2013-02-01 04:30:00,14.8,8.9,30.47,South,176,1.0,3.0,77,0.00,,BKN150,0.00,VWS V14.01,2013-02-01 10:30:00,
2013-02-01 04:31:00,14.8,8.9,30.46,South,176,0.0,1.0,77,0.00,,CLR,0.00,VWS V14.01,2013-02-01 10:31:00,
2013-02-01 04:35:00,14.8,8.9,30.46,SSE,163,4.0,4.0,77,0.00,,BKN150,0.00,VWS V14.01,2013-02-01 10:35:00,
2013-02-01 04:36:00,14.8,8.9,30.46,SSW,193,1.0,4.0,77,0.00,,CLR,0.00,VWS V14.01,2013-02-01 10:36:00,
2013-02-01 04:40:00,14.9,9.0,30.46,SSE,156,1.0,4.0,77,0.00,,BKN150,0.00,VWS V14.01,2013-02-01 10:40:00,
2013-02-01 04:41:00,14.9,9.0,30.46,SSW,199,3.0,3.0,77,0.00,,CLR,0.00,VWS V14.01,2013-02-01 10:41:00,
2013-02-01 04:45:00,14.9,9.0,30.46,South,169,1.0,4.0,77,0.00,,BKN150,0.00,VWS V14.01,2013-02-01 10:45:00,
2013-02-01 04:46:00,15.0,8.8,30.46,SE,139,0.0,3.0,76,0.00,,CLR,0.00,VWS V14.01,2013-02-01 10:46:00,
2013-02-01 04:50:00,15.0,8.8,30.46,SSW,195,3.0,3.0,76,0.00,,BKN150,0.00,VWS V14.01,2013-02-01 10:50:00,
2013-02-01 04:52:00,15.0,8.8,30.46,SSE,158,4.0,4.0,76,0.00,,CLR,0.00,VWS V14.01,2013-02-01 10:52:00,
2013-02-01 04:55:00,15.1,8.9,30.46,SSW,198,1.0,5.0,76,0.00,,BKN150,0.00,VWS V14.01,2013-02-01 10:55:00,
2013-02-01 04:56:00,15.1,8.9,30.46,South,174,0.0,1.0,76,0.00,,CLR,0.00,VWS V14.01,2013-02-01 10:56:00,
2013-02-01 05:00:00,15.1,8.9,30.45,South,174,0.0,1.0,76,0.00,,BKN150,0.00,VWS V14.01,2013-02-01 11:00:00,
2013-02-01 05:02:00,15.0,8.8,30.45,SSE,155,1.0,1.0,76,0.00,,CLR,0.00,VWS V14.01,2013-02-01 11:02:00,
2013-02-01 05:05:00,15.0,8.8,30.46,South,176,2.0,4.0,76,0.00,,BKN150,0.00,VWS V14.01,2013-02-01 11:05:00,
2013-02-01 05:06:00,15.0,8.8,30.46,South,187,1.0,3.0,76,0.00,,CLR,0.00,VWS V14.01,2013-02-01 11:06:00,
2013-02-01 05:10:00,15.0,8.8,30.46,South,172,2.0,3.0,76,0.00,,BKN150,0.00,VWS V14.01,2013-02-01 11:10:00,
2013-02-01 05:11:00,15.0,8.8,30.46,SSW,204,2.0,4.0,76,0.00,,CLR,0.00,VWS V14.01,2013-02-01 11:11:00,
2013-02-01 05:15:00,15.1,8.9,30.45,South,183,1.0,4.0,76,0.00,,BKN150,0.00,VWS V14.01,2013-02-01 11:15:00,
2013-02-01 05:16:00,15.1,8.9,30.45,SSE,165,1.0,3.0,76,0.00,,CLR,0.00,VWS V14.01,2013-02-01 11:16:00,
2013-02-01 05:20:00,15.0,8.8,30.45,SSE,149,1.0,3.0,76,0.00,,BKN150,0.00,VWS V14.01,2013-02-01 11:20:00,
2013-02-01 05:22:00,15.1,8.9,30.45,SSE,154,1.0,2.0,76,0.00,,CLR,0.00,VWS V14.01,2013-02-01 11:22:00,
2013-02-01 05:25:00,15.0,8.8,30.46,SSE,156,1.0,3.0,76,0.00,,BKN150,0.00,VWS V14.01,2013-02-01 11:25:00,
2013-02-01 05:26:00,15.0,8.8,30.46,SSE,158,1.0,2.0,76,0.00,,CLR,0.00,VWS V14.01,2013-02-01 11:26:00,
2013-02-01 05:30:00,15.0,8.8,30.46,South,190,1.0,2.0,76,0.00,,BKN150,0.00,VWS V14.01,2013-02-01 11:30:00,
2013-02-01 05:31:00,14.9,8.7,30.46,SSE,163,0.0,2.0,76,0.00,,CLR,0.00,VWS V14.01,2013-02-01 11:31:00,
2013-02-01 05:35:00,14.9,8.7,30.46,SSE,152,1.0,4.0,76,0.00,,BKN150,0.00,VWS V14.01,2013-02-01 11:35:00,
2013-02-01 05:36:00,14.9,8.7,30.46,South,174,3.0,3.0,76,0.00,,CLR,0.00,VWS V14.01,2013-02-01 11:36:00,
2013-02-01 05:40:00,14.9,8.7,30.46,South,177,2.0,3.0,76,0.00,,BKN150,0.00,VWS V14.01,2013-02-01 11:40:00,
2013-02-01 05:41:00,14.9,8.7,30.46,SSW,200,0.0,3.0,76,0.00,,CLR,0.00,VWS V14.01,2013-02-01 11:41:00,
2013-02-01 05:45:00,14.9,8.7,30.46,SSE,161,1.0,3.0,76,0.00,,BKN150,0.00,VWS V14.01,2013-02-01 11:45:00,
2013-02-01 05:46:00,14.8,8.6,30.46,SSE,162,1.0,2.0,76,0.00,,CLR,0.00,VWS V14.01,2013-02-01 11:46:00,
2013-02-01 05:50:00,14.8,8.9,30.46,SSE,161,0.0,2.0,77,0.00,,BKN150,0.00,VWS V14.01,2013-02-01 11:50:00,
2013-02-01 05:51:00,14.8,8.9,30.46,SSE,160,0.0,1.0,77,0.00,,CLR,0.00,VWS V14.01,2013-02-01 11:51:00,
2013-02-01 05:55:00,14.7,8.8,30.46,SSE,162,0.0,1.0,77,0.00,,BKN150,0.00,VWS V14.01,2013-02-01 11:55:00,
2013-02-01 05:56:00,14.7,8.8,30.46,SSE,161,0.0,1.0,77,0.00,,CLR,0.00,VWS V14.01,2013-02-01 11:56:00,
2013-02-01 06:00:00,14.6,8.7,30.46,SE,145,2.0,2.0,77,0.00,,BKN150,0.00,VWS V14.01,2013-02-01 12:00:00,
2013-02-01 06:01:00,14.6,9.0,30.46,SE,135,1.0,2.0,78,0.00,,CLR,0.00,VWS V14.01,2013-02-01 12:01:00,
2013-02-01 06:05:00,14.6,9.0,30.46,SE,139,1.0,2.0,78,0.00,,BKN150,0.00,VWS V14.01,2013-02-01 12:05:00,
2013-02-01 06:06:00,14.6,9.0,30.46,SE,136,0.0,1.0,78,0.00,,CLR,0.00,VWS V14.01,2013-02-01 12:06:00,
2013-02-01 06:10:00,14.6,8.7,30.46,ESE,121,1.0,1.0,77,0.00,,BKN150,0.00,VWS V14.01,2013-02-01 12:10:00,
2013-02-01 06:11:00,14.6,8.7,30.46,SE,132,1.0,1.0,77,0.00,,CLR,0.00,VWS V14.01,2013-02-01 12:11:00,
2013-02-01 06:15:00,14.6,9.0,30.47,SSW,193,1.0,1.0,78,0.00,,BKN150,0.00,VWS V14.01,2013-02-01 12:15:00,
2013-02-01 06:16:00,14.6,8.7,30.47,SSE,148,1.0,1.0,77,0.00,,CLR,0.00,VWS V14.01,2013-02-01 12:16:00,
2013-02-01 06:20:00,14.5,8.9,30.47,SE,143,1.0,2.0,78,0.00,,BKN150,0.00,VWS V14.01,2013-02-01 12:20:00,
2013-02-01 06:21:00,14.5,8.9,30.47,SE,138,1.0,2.0,78,0.00,,CLR,0.00,VWS V14.01,2013-02-01 12:21:00,
2013-02-01 06:25:00,14.4,8.8,30.47,SSE,158,1.0,2.0,78,0.00,,BKN150,0.00,VWS V14.01,2013-02-01 12:25:00,
2013-02-01 06:26:00,14.4,8.8,30.47,SSE,154,1.0,2.0,78,0.00,,CLR,0.00,VWS V14.01,2013-02-01 12:26:00,
2013-02-01 06:30:00,14.3,8.7,30.47,SSE,154,1.0,3.0,78,0.00,,BKN150,0.00,VWS V14.01,2013-02-01 12:30:00,
2013-02-01 06:31:00,14.3,8.7,30.47,SE,146,1.0,2.0,78,0.00,,CLR,0.00,VWS V14.01,2013-02-01 12:31:00,
2013-02-01 06:35:00,14.3,8.7,30.47,SSE,155,0.0,2.0,78,0.00,,BKN150,0.00,VWS V14.01,2013-02-01 12:35:00,
2013-02-01 06:36:00,14.4,8.8,30.47,SSW,194,1.0,2.0,78,0.00,,CLR,0.00,VWS V14.01,2013-02-01 12:36:00,
2013-02-01 06:40:00,14.4,8.8,30.47,South,169,3.0,3.0,78,0.00,,BKN150,0.00,VWS V14.01,2013-02-01 12:40:00,
2013-02-01 06:41:00,14.5,8.9,30.47,SE,142,1.0,4.0,78,0.00,,CLR,0.00,VWS V14.01,2013-02-01 12:41:00,
2013-02-01 06:45:00,14.6,9.0,30.47,SSE,152,1.0,4.0,78,0.00,,BKN150,0.00,VWS V14.01,2013-02-01 12:45:00,
2013-02-01 06:46:00,14.6,9.0,30.47,SSE,152,1.0,1.0,78,0.00,,CLR,0.00,VWS V14.01,2013-02-01 12:46:00,
2013-02-01 06:50:00,14.7,9.1,30.47,SE,135,1.0,1.0,78,0.00,,BKN150,0.00,VWS V14.01,2013-02-01 12:50:00,
2013-02-01 06:51:00,14.7,9.1,30.47,SE,135,1.0,1.0,78,0.00,,CLR,0.00,VWS V14.01,2013-02-01 12:51:00,
2013-02-01 06:55:00,14.7,8.8,30.47,SSE,153,0.0,1.0,77,0.00,,BKN150,0.00,VWS V14.01,2013-02-01 12:55:00,
2013-02-01 06:56:00,14.7,8.8,30.47,SSE,154,0.0,0.0,77,0.00,,CLR,0.00,VWS V14.01,2013-02-01 12:56:00,
2013-02-01 07:00:00,14.7,8.8,30.47,SE,146,1.0,2.0,77,0.00,,BKN150,0.00,VWS V14.01,2013-02-01 13:00:00,
2013-02-01 07:01:00,14.7,8.8,30.47,SSE,158,2.0,2.0,77,0.00,,CLR,0.00,VWS V14.01,2013-02-01 13:01:00,
2013-02-01 07:05:00,14.8,8.9,30.48,South,184,3.0,4.0,77,0.00,,BKN150,0.00,VWS V14.01,2013-02-01 13:05:00,
2013-02-01 07:06:00,14.8,8.9,30.47,South,191,1.0,4.0,77,0.00,,CLR,0.00,VWS V14.01,2013-02-01 13:06:00,
2013-02-01 07:10:00,14.8,8.9,30.48,South,186,1.0,4.0,77,0.00,,BKN150,0.00,VWS V14.01,2013-02-01 13:10:00,
2013-02-01 07:11:00,14.8,8.9,30.48,SE,145,2.0,3.0,77,0.00,,CLR,0.00,VWS V14.01,2013-02-01 13:11:00,
2013-02-01 07:15:00,14.9,9.3,30.48,SW,222,2.0,4.0,78,0.00,,BKN150,0.00,VWS V14.01,2013-02-01 13:15:00,
2013-02-01 07:16:00,15.0,9.1,30.48,SSE,156,1.0,3.0,77,0.00,,CLR,0.00,VWS V14.01,2013-02-01 13:16:00,
2013-02-01 07:20:00,15.0,9.1,30.48,SSE,155,1.0,5.0,77,0.00,,BKN150,0.00,VWS V14.01,2013-02-01 13:20:00,
2013-02-01 07:21:00,15.1,9.2,30.48,SE,138,2.0,4.0,77,0.00,,CLR,0.00,VWS V14.01,2013-02-01 13:21:00,
2013-02-01 07:25:00,15.2,9.3,30.48,SE,136,1.0,6.0,77,0.00,,BKN150,0.00,VWS V14.01,2013-02-01 13:25:00,
2013-02-01 07:26:00,15.2,9.3,30.48,South,179,5.0,7.0,77,0.00,,CLR,0.00,VWS V14.01,2013-02-01 13:26:00,
2013-02-01 07:30:00,15.4,9.5,30.48,SSE,154,1.0,7.0,77,0.00,,BKN150,0.00,VWS V14.01,2013-02-01 13:30:00,
2013-02-01 07:31:00,15.4,9.5,30.47,ESE,112,2.0,5.0,77,0.00,,CLR,0.00,VWS V14.01,2013-02-01 13:31:00,
2013-02-01 07:35:00,15.5,9.3,30.47,SSE,158,4.0,6.0,76,0.00,,BKN150,0.00,VWS V14.01,2013-02-01 13:35:00,
2013-02-01 07:36:00,15.6,9.4,30.47,SSE,150,6.0,6.0,76,0.00,,SCT180,0.00,VWS V14.01,2013-02-01 13:36:00,
2013-02-01 07:40:00,15.7,9.5,30.47,SW,226,6.0,6.0,76,0.00,,BKN150,0.00,VWS V14.01,2013-02-01 13:40:00,
2013-02-01 07:41:00,15.8,9.6,30.47,South,188,4.0,6.0,76,0.00,,SCT180,0.00,VWS V14.01,2013-02-01 13:41:00,
2013-02-01 07:45:00,15.9,9.4,30.47,ESE,113,2.0,6.0,75,0.00,,BKN150,0.00,VWS V14.01,2013-02-01 13:45:00,
2013-02-01 07:46:00,15.9,9.4,30.47,SE,124,2.0,5.0,75,0.00,,SCT180,0.00,VWS V14.01,2013-02-01 13:46:00,
2013-02-01 07:50:00,16.1,9.6,30.47,SSE,154,1.0,8.0,75,0.00,,BKN150,0.00,VWS V14.01,2013-02-01 13:50:00,
2013-02-01 07:51:00,16.1,9.6,30.47,SW,215,2.0,3.0,75,0.00,,SCT180,0.00,VWS V14.01,2013-02-01 13:51:00,
2013-02-01 07:55:00,16.2,9.7,30.47,SSW,200,2.0,4.0,75,0.00,,BKN150,0.00,VWS V14.01,2013-02-01 13:55:00,
2013-02-01 07:56:00,16.3,9.8,30.47,SSE,167,1.0,2.0,75,0.00,,SCT180,0.00,VWS V14.01,2013-02-01 13:56:00,
2013-02-01 08:00:00,16.3,9.5,30.47,South,172,2.0,4.0,74,0.00,,BKN150,0.00,VWS V14.01,2013-02-01 14:00:00,
2013-02-01 08:01:00,16.3,9.5,30.47,SE,134,2.0,4.0,74,0.00,,SCT180,0.00,VWS V14.01,2013-02-01 14:01:00,
2013-02-01 08:05:00,16.4,9.6,30.47,SSE,160,3.0,5.0,74,0.00,,BKN150,0.00,VWS V14.01,2013-02-01 14:05:00,
2013-02-01 08:06:00,16.5,9.7,30.47,South,177,4.0,6.0,74,0.00,,SCT180,0.00,VWS V14.01,2013-02-01 14:06:00,
2013-02-01 08:10:00,16.6,9.8,30.47,SSE,156,2.0,6.0,74,0.00,,BKN150,0.00,VWS V14.01,2013-02-01 14:10:00,
2013-02-01 08:11:00,16.7,9.9,30.47,ESE,123,2.0,3.0,74,0.00,,SCT180,0.00,VWS V14.01,2013-02-01 14:11:00,
2013-02-01 08:15:00,16.7,9.9,30.47,SSE,160,5.0,6.0,74,0.00,,BKN150,0.00,VWS V14.01,2013-02-01 14:15:00,
2013-02-01 08:16:00,16.8,9.7,30.46,SSE,153,3.0,6.0,73,0.00,,SCT180,0.00,VWS V14.01,2013-02-01 14:16:00,
2013-02-01 08:20:00,16.8,10.0,30.46,SSE,166,5.0,6.0,74,0.00,,BKN150,0.00,VWS V14.01,2013-02-01 14:20:00,
2013-02-01 08:21:00,16.9,9.8,30.46,ESE,111,3.0,5.0,73,0.00,,SCT180,0.00,VWS V14.01,2013-02-01 14:21:00,
2013-02-01 08:25:00,16.9,9.8,30.47,SSE,152,3.0,6.0,73,0.00,,BKN150,0.00,VWS V14.01,2013-02-01 14:25:00,
2013-02-01 08:26:00,16.9,9.8,30.46,SSW,193,11.0,11.0,73,0.00,,SCT180,0.00,VWS V14.01,2013-02-01 14:26:00,
2013-02-01 08:30:00,16.9,9.4,30.47,South,172,4.0,11.0,72,0.00,,BKN150,0.00,VWS V14.01,2013-02-01 14:30:00,
2013-02-01 08:31:00,17.0,9.9,30.47,SE,145,4.0,5.0,73,0.00,,SCT180,0.00,VWS V14.01,2013-02-01 14:31:00,
2013-02-01 08:35:00,17.1,9.9,30.47,SE,124,3.0,6.0,73,0.00,,BKN150,0.00,VWS V14.01,2013-02-01 14:35:00,
2013-02-01 08:36:00,17.2,10.1,30.47,SE,139,3.0,5.0,73,0.00,,BKN130,0.00,VWS V14.01,2013-02-01 14:36:00,
2013-02-01 08:40:00,17.4,9.9,30.47,SSE,165,4.0,6.0,72,0.00,,BKN150,0.00,VWS V14.01,2013-02-01 14:40:00,
2013-02-01 08:41:00,17.5,10.0,30.47,South,183,6.0,9.0,72,0.00,,BKN130,0.00,VWS V14.01,2013-02-01 14:41:00,
2013-02-01 08:45:00,17.7,10.2,30.47,SE,142,5.0,9.0,72,0.00,,BKN150,0.00,VWS V14.01,2013-02-01 14:45:00,
2013-02-01 08:46:00,17.8,10.0,30.47,SE,125,4.0,7.0,71,0.00,,BKN130,0.00,VWS V14.01,2013-02-01 14:46:00,
2013-02-01 08:50:00,18.0,10.2,30.47,SE,139,3.0,7.0,71,0.00,,BKN150,0.00,VWS V14.01,2013-02-01 14:50:00,
2013-02-01 08:51:00,18.0,9.9,30.46,SSE,158,5.0,7.0,70,0.00,,BKN130,0.00,VWS V14.01,2013-02-01 14:51:00,
2013-02-01 08:55:00,18.1,10.0,30.47,SW,215,4.0,9.0,70,0.00,,BKN150,0.00,VWS V14.01,2013-02-01 14:55:00,
2013-02-01 08:56:00,18.2,10.1,30.47,ESE,111,6.0,6.0,70,0.00,,BKN130,0.00,VWS V14.01,2013-02-01 14:56:00,
2013-02-01 09:00:00,18.4,10.3,30.47,South,186,6.0,11.0,70,0.00,,BKN150,0.00,VWS V14.01,2013-02-01 15:00:00,
2013-02-01 09:01:00,18.5,10.4,30.47,East,99,4.0,6.0,70,0.00,,BKN130,0.00,VWS V14.01,2013-02-01 15:01:00,
2013-02-01 09:05:00,18.8,11.0,30.46,ESE,119,2.0,7.0,71,0.00,,BKN150,0.00,VWS V14.01,2013-02-01 15:05:00,
2013-02-01 09:06:00,19.0,10.8,30.46,South,188,8.0,8.0,70,0.00,,BKN130,0.00,VWS V14.01,2013-02-01 15:06:00,
2013-02-01 09:10:00,19.2,11.4,30.46,South,188,6.0,8.0,71,0.00,,BKN150,0.00,VWS V14.01,2013-02-01 15:10:00,
2013-02-01 09:11:00,19.2,11.0,30.47,East,97,10.0,10.0,70,0.00,,BKN130,0.00,VWS V14.01,2013-02-01 15:11:00,
2013-02-01 09:15:00,19.3,11.1,30.46,SW,226,3.0,10.0,70,0.00,,BKN150,0.00,VWS V14.01,2013-02-01 15:15:00,
2013-02-01 09:16:00,19.3,11.1,30.46,WSW,254,7.0,8.0,70,0.00,,BKN130,0.00,VWS V14.01,2013-02-01 15:16:00,
2013-02-01 09:20:00,19.4,11.2,30.46,South,172,8.0,9.0,70,0.00,,BKN150,0.00,VWS V14.01,2013-02-01 15:20:00,
2013-02-01 09:21:00,19.4,11.2,30.46,SE,131,3.0,8.0,70,0.00,,BKN130,0.00,VWS V14.01,2013-02-01 15:21:00,
2013-02-01 09:25:00,19.5,11.3,30.46,ESE,115,7.0,8.0,70,0.00,,BKN150,0.00,VWS V14.01,2013-02-01 15:25:00,
2013-02-01 09:26:00,19.5,11.3,30.46,SSE,166,7.0,7.0,70,0.00,,BKN130,0.00,VWS V14.01,2013-02-01 15:26:00,
2013-02-01 09:30:00,19.6,11.4,30.46,SSE,150,3.0,10.0,70,0.00,,BKN150,0.00,VWS V14.01,2013-02-01 15:30:00,
2013-02-01 09:31:00,19.6,11.4,30.46,SE,139,6.0,7.0,70,0.00,,BKN130,0.00,VWS V14.01,2013-02-01 15:31:00,
2013-02-01 09:35:00,20.0,11.5,30.45,SE,142,7.0,13.0,69,0.00,,BKN150,0.00,VWS V14.01,2013-02-01 15:35:00,
2013-02-01 09:36:00,20.2,12.0,30.46,SW,224,9.0,9.0,70,0.00,,BKN150,0.00,VWS V14.01,2013-02-01 15:36:00,
2013-02-01 09:40:00,20.6,11.7,30.45,South,186,6.0,12.0,68,0.00,,BKN180,0.00,VWS V14.01,2013-02-01 15:40:00,
2013-02-01 09:41:00,20.8,11.9,30.46,SSE,152,6.0,10.0,68,0.00,,BKN150,0.00,VWS V14.01,2013-02-01 15:41:00,
2013-02-01 09:45:00,21.2,12.0,30.46,SSW,193,11.0,11.0,67,0.00,,BKN180,0.00,VWS V14.01,2013-02-01 15:45:00,
2013-02-01 09:46:00,21.2,11.6,30.46,SSW,195,6.0,11.0,66,0.00,,BKN150,0.00,VWS V14.01,2013-02-01 15:46:00,
2013-02-01 09:50:00,21.2,10.9,30.46,SE,124,7.0,14.0,64,0.00,,BKN180,0.00,VWS V14.01,2013-02-01 15:50:00,
2013-02-01 09:51:00,21.2,10.9,30.46,SSW,201,4.0,8.0,64,0.00,,BKN150,0.00,VWS V14.01,2013-02-01 15:51:00,
2013-02-01 09:55:00,21.4,10.8,30.46,SE,128,6.0,13.0,63,0.00,,BKN180,0.00,VWS V14.01,2013-02-01 15:55:00,
2013-02-01 09:56:00,21.5,10.9,30.46,ESE,120,6.0,6.0,63,0.00,,BKN150,0.00,VWS V14.01,2013-02-01 15:56:00,
2013-02-01 10:00:00,21.4,9.7,30.46,SSE,165,6.0,12.0,60,0.00,,BKN180,0.00,VWS V14.01,2013-02-01 16:00:00,
2013-02-01 10:01:00,21.4,9.3,30.46,SE,134,6.0,9.0,59,0.00,,BKN150,0.00,VWS V14.01,2013-02-01 16:01:00,
2013-02-01 10:05:00,21.5,10.1,30.46,ESE,112,9.0,9.0,61,0.00,,BKN180,0.00,VWS V14.01,2013-02-01 16:05:00,
2013-02-01 10:06:00,21.6,10.2,30.46,SSE,160,4.0,9.0,61,0.00,,BKN150,0.00,VWS V14.01,2013-02-01 16:06:00,
2013-02-01 10:10:00,21.8,10.4,30.46,South,179,7.0,10.0,61,0.00,,BKN180,0.00,VWS V14.01,2013-02-01 16:10:00,
2013-02-01 10:11:00,21.8,10.8,30.46,SE,146,5.0,12.0,62,0.00,,BKN150,0.00,VWS V14.01,2013-02-01 16:11:00,
2013-02-01 10:15:00,22.0,10.2,30.46,SE,142,5.0,14.0,60,0.00,,BKN180,0.00,VWS V14.01,2013-02-01 16:15:00,
2013-02-01 10:16:00,22.0,9.9,30.46,SE,139,9.0,12.0,59,0.00,,BKN150,0.00,VWS V14.01,2013-02-01 16:16:00,
2013-02-01 10:20:00,22.0,8.7,30.46,South,176,6.0,13.0,56,0.00,,BKN180,0.00,VWS V14.01,2013-02-01 16:20:00,
2013-02-01 10:21:00,22.0,8.7,30.46,SE,132,4.0,9.0,56,0.00,,BKN150,0.00,VWS V14.01,2013-02-01 16:21:00,
2013-02-01 10:25:00,22.4,9.1,30.46,SE,139,8.0,12.0,56,0.00,,BKN180,0.00,VWS V14.01,2013-02-01 16:25:00,
2013-02-01 10:26:00,22.4,9.1,30.46,South,179,5.0,10.0,56,0.00,,BKN150,0.00,VWS V14.01,2013-02-01 16:26:00,
2013-02-01 10:30:00,22.9,9.6,30.46,South,190,10.0,12.0,56,0.00,,BKN180,0.00,VWS V14.01,2013-02-01 16:30:00,
2013-02-01 10:31:00,23.0,9.2,30.46,South,190,6.0,10.0,55,0.00,,BKN150,0.00,VWS V14.01,2013-02-01 16:31:00,
2013-02-01 10:35:00,23.3,9.1,30.46,SE,134,6.0,10.0,54,0.00,,BKN180,0.00,VWS V14.01,2013-02-01 16:35:00,
2013-02-01 10:36:00,23.3,9.1,30.46,SE,139,6.0,8.0,54,0.00,,BKN180,0.00,VWS V14.01,2013-02-01 16:36:00,
2013-02-01 10:40:00,23.3,8.7,30.46,SSE,165,11.0,14.0,53,0.00,,BKN180,0.00,VWS V14.01,2013-02-01 16:40:00,
2013-02-01 10:41:00,23.3,8.7,30.46,SW,235,7.0,13.0,53,0.00,,BKN180,0.00,VWS V14.01,2013-02-01 16:41:00,
2013-02-01 10:45:00,23.7,9.1,30.46,SSW,210,10.0,13.0,53,0.00,,BKN180,0.00,VWS V14.01,2013-02-01 16:45:00,
2013-02-01 10:46:00,23.8,8.8,30.46,South,172,7.0,11.0,52,0.00,,BKN180,0.00,VWS V14.01,2013-02-01 16:46:00,
2013-02-01 10:50:00,23.8,7.9,30.46,SE,126,7.0,14.0,50,0.00,,BKN180,0.00,VWS V14.01,2013-02-01 16:50:00,
2013-02-01 10:51:00,23.9,8.4,30.46,SSE,149,15.0,15.0,51,0.00,,BKN180,0.00,VWS V14.01,2013-02-01 16:51:00,
2013-02-01 10:55:00,23.9,8.4,30.46,SE,146,8.0,15.0,51,0.00,,BKN180,0.00,VWS V14.01,2013-02-01 16:55:00,
2013-02-01 10:56:00,23.9,8.4,30.46,SSE,154,7.0,12.0,51,0.00,,BKN180,0.00,VWS V14.01,2013-02-01 16:56:00,
2013-02-01 11:00:00,24.0,8.1,30.46,SSW,203,6.0,14.0,50,0.00,,BKN180,0.00,VWS V14.01,2013-02-01 17:00:00,
2013-02-01 11:01:00,24.1,8.2,30.46,South,176,4.0,9.0,50,0.00,,BKN180,0.00,VWS V14.01,2013-02-01 17:01:00,
2013-02-01 11:05:00,24.2,7.8,30.45,SW,231,6.0,13.0,49,0.00,,BKN180,0.00,VWS V14.01,2013-02-01 17:05:00,
2013-02-01 11:06:00,24.2,7.8,30.45,SSW,194,12.0,12.0,49,0.00,,BKN180,0.00,VWS V14.01,2013-02-01 17:06:00,
2013-02-01 11:10:00,24.3,7.9,30.45,South,180,7.0,13.0,49,0.00,,BKN180,0.00,VWS V14.01,2013-02-01 17:10:00,
2013-02-01 11:15:00,24.5,7.6,30.45,South,180,8.0,16.0,48,0.00,,BKN180,0.00,VWS V14.01,2013-02-01 17:15:00,
2013-02-01 11:20:00,24.7,7.3,30.45,SSE,158,8.0,14.0,47,0.00,,BKN180,0.00,VWS V14.01,2013-02-01 17:20:00,
2013-02-01 11:25:00,24.8,7.4,30.44,South,180,8.0,14.0,47,0.00,,BKN180,0.00,VWS V14.01,2013-02-01 17:25:00,
2013-02-01 11:30:00,25.1,8.2,30.43,South,180,6.0,12.0,48,0.00,,BKN180,0.00,VWS V14.01,2013-02-01 17:30:00,
2013-02-01 11:35:00,25.3,8.4,30.43,South,180,9.0,20.0,48,0.00,,BKN180,0.00,VWS V14.01,2013-02-01 17:35:00,
2013-02-01 11:40:00,25.6,8.2,30.43,South,180,9.0,17.0,47,0.00,,BKN180,0.00,VWS V14.01,2013-02-01 17:40:00,
2013-02-01 11:45:00,25.9,8.9,30.42,South,180,9.0,16.0,48,0.00,,BKN180,0.00,VWS V14.01,2013-02-01 17:45:00,
2013-02-01 11:50:00,26.5,8.5,30.42,South,180,8.0,16.0,46,0.00,,BKN180,0.00,VWS V14.01,2013-02-01 17:50:00,
2013-02-01 11:55:00,27.3,7.2,30.42,SSE,158,9.0,18.0,42,0.00,,BKN180,0.00,VWS V14.01,2013-02-01 17:55:00,
2013-02-01 12:00:00,27.6,8.0,30.41,South,180,10.0,20.0,43,0.00,,BKN180,0.00,VWS V14.01,2013-02-01 18:00:00,
2013-02-01 12:05:00,27.9,8.8,30.41,South,180,6.0,11.0,44,0.00,,BKN180,0.00,VWS V14.01,2013-02-01 18:05:00,
2013-02-01 12:10:00,28.6,8.9,30.41,South,180,8.0,15.0,43,0.00,,BKN180,0.00,VWS V14.01,2013-02-01 18:10:00,
2013-02-01 12:15:00,29.1,9.4,30.40,SSE,158,7.0,14.0,43,0.00,,BKN180,0.00,VWS V14.01,2013-02-01 18:15:00,
2013-02-01 12:20:00,29.3,9.1,30.40,South,180,6.0,12.0,42,0.00,,BKN180,0.00,VWS V14.01,2013-02-01 18:20:00,
2013-02-01 12:25:00,29.7,9.4,30.39,South,180,7.0,13.0,42,0.00,,BKN180,0.00,VWS V14.01,2013-02-01 18:25:00,
2013-02-01 12:30:00,30.0,8.6,30.40,South,180,9.0,15.0,40,0.00,,BKN180,0.00,VWS V14.01,2013-02-01 18:30:00,
2013-02-01 12:35:00,30.3,8.9,30.39,SSE,158,7.0,14.0,40,0.00,,BKN180,0.00,VWS V14.01,2013-02-01 18:35:00,
2013-02-01 12:40:00,30.5,9.1,30.39,South,180,8.0,13.0,40,0.00,,BKN180,0.00,VWS V14.01,2013-02-01 18:40:00,
2013-02-01 12:45:00,30.8,9.3,30.39,SSE,158,7.0,16.0,40,0.00,,BKN180,0.00,VWS V14.01,2013-02-01 18:45:00,
2013-02-01 12:50:00,31.1,9.6,30.38,SSE,158,8.0,15.0,40,0.00,,BKN180,0.00,VWS V14.01,2013-02-01 18:50:00,
2013-02-01 12:55:00,31.3,9.8,30.38,SSE,158,8.0,15.0,40,0.00,,BKN180,0.00,VWS V14.01,2013-02-01 18:55:00,
2013-02-01 13:00:00,31.3,9.8,30.38,South,180,9.0,16.0,40,0.00,,BKN180,0.00,VWS V14.01,2013-02-01 19:00:00,
2013-02-01 13:05:00,31.3,9.8,30.37,SSE,158,8.0,14.0,40,0.00,,BKN180,0.00,VWS V14.01,2013-02-01 19:05:00,
2013-02-01 13:10:00,31.6,10.1,30.35,SSE,158,6.0,10.0,40,0.00,,BKN180,0.00,VWS V14.01,2013-02-01 19:10:00,
2013-02-01 13:15:00,32.3,10.1,30.35,South,180,9.0,16.0,39,0.00,,BKN180,0.00,VWS V14.01,2013-02-01 19:15:00,
2013-02-01 13:20:00,32.0,9.9,30.34,SSE,158,9.0,22.0,39,0.00,,BKN180,0.00,VWS V14.01,2013-02-01 19:20:00,
2013-02-01 13:25:00,32.4,9.6,30.34,SSE,158,8.0,13.0,38,0.00,,BKN180,0.00,VWS V14.01,2013-02-01 19:25:00,
2013-02-01 13:30:00,32.8,10.0,30.33,South,180,6.0,14.0,38,0.00,,BKN180,0.00,VWS V14.01,2013-02-01 19:30:00,
2013-02-01 13:35:00,33.4,9.9,30.33,SSE,158,7.0,12.0,37,0.00,,BKN180,0.00,VWS V14.01,2013-02-01 19:35:00,
2013-02-01 13:40:00,33.3,10.4,30.32,SSE,158,7.0,13.0,38,0.00,,BKN180,0.00,VWS V14.01,2013-02-01 19:40:00,
2013-02-01 13:45:00,33.5,10.6,30.32,SSE,158,7.0,14.0,38,0.00,,BKN180,0.00,VWS V14.01,2013-02-01 19:45:00,
2013-02-01 13:50:00,33.8,10.3,30.32,South,180,7.0,13.0,37,0.00,,BKN180,0.00,VWS V14.01,2013-02-01 19:50:00,
2013-02-01 13:55:00,34.1,10.0,30.31,SSE,158,8.0,17.0,36,0.00,,BKN180,0.00,VWS V14.01,2013-02-01 19:55:00,
2013-02-01 14:00:00,34.2,11.3,30.30,South,180,6.0,13.0,38,0.00,,BKN180,0.00,VWS V14.01,2013-02-01 20:00:00,
2013-02-01 14:05:00,34.4,10.8,30.31,South,180,7.0,11.0,37,0.00,,BKN180,0.00,VWS V14.01,2013-02-01 20:05:00,
2013-02-01 14:10:00,34.3,10.8,30.31,SSE,158,7.0,13.0,37,0.00,,BKN180,0.00,VWS V14.01,2013-02-01 20:10:00,
2013-02-01 14:15:00,34.2,11.3,30.30,SSE,158,8.0,15.0,38,0.00,,BKN180,0.00,VWS V14.01,2013-02-01 20:15:00,
2013-02-01 14:20:00,34.0,11.1,30.29,SSE,158,8.0,12.0,38,0.00,,BKN180,0.00,VWS V14.01,2013-02-01 20:20:00,
2013-02-01 14:25:00,33.9,11.0,30.29,South,180,7.0,15.0,38,0.00,,BKN180,0.00,VWS V14.01,2013-02-01 20:25:00,
2013-02-01 14:30:00,34.1,11.2,30.29,SSE,158,7.0,15.0,38,0.00,,BKN180,0.00,VWS V14.01,2013-02-01 20:30:00,
2013-02-01 14:35:00,34.2,11.3,30.29,SSE,158,7.0,15.0,38,0.00,,BKN180,0.00,VWS V14.01,2013-02-01 20:35:00,
2013-02-01 14:40:00,34.4,11.4,30.28,SSE,158,6.0,11.0,38,0.00,,BKN180,0.00,VWS V14.01,2013-02-01 20:40:00,
2013-02-01 14:45:00,34.3,11.4,30.28,South,180,8.0,15.0,38,0.00,,BKN180,0.00,VWS V14.01,2013-02-01 20:45:00,
2013-02-01 14:50:00,34.1,11.8,30.28,SSE,158,6.0,11.0,39,0.00,,BKN180,0.00,VWS V14.01,2013-02-01 20:50:00,
2013-02-01 14:55:00,34.4,11.4,30.28,South,180,6.0,12.0,38,0.00,,BKN180,0.00,VWS V14.01,2013-02-01 20:55:00,
2013-02-01 15:00:00,34.5,11.5,30.28,SSE,158,7.0,12.0,38,0.00,,BKN180,0.00,VWS V14.01,2013-02-01 21:00:00,
2013-02-01 15:05:00,34.4,11.4,30.28,SSE,158,7.0,15.0,38,0.00,,BKN180,0.00,VWS V14.01,2013-02-01 21:05:00,
2013-02-01 15:10:00,34.1,11.2,30.27,South,180,7.0,13.0,38,0.00,,BKN180,0.00,VWS V14.01,2013-02-01 21:10:00,
2013-02-01 15:15:00,34.2,11.3,30.27,SSE,158,7.0,13.0,38,0.00,,BKN180,0.00,VWS V14.01,2013-02-01 21:15:00,
2013-02-01 15:20:00,34.4,11.4,30.27,SSE,158,6.0,16.0,38,0.00,,BKN180,0.00,VWS V14.01,2013-02-01 21:20:00,
2013-02-01 15:25:00,34.4,10.8,30.26,SSE,158,7.0,16.0,37,0.00,,SCT250,0.00,VWS V14.01,2013-02-01 21:25:00,
2013-02-01 15:30:00,36.9,13.1,30.23,SSE,156,7.0,13.0,37,0.00,,FEW085,0.00,VWS V14.01,2013-02-01 21:30:00,
2013-02-01 15:32:00,34.4,10.8,30.26,SSE,158,7.0,16.0,37,0.00,,BKN180,0.00,VWS V14.01,2013-02-01 21:32:00,
2013-02-01 15:35:00,34.3,11.4,30.25,South,177,9.0,12.0,38,0.00,,SCT250,0.00,VWS V14.01,2013-02-01 21:35:00,
2013-02-01 15:37:00,34.4,11.4,30.25,SSE,157,4.0,11.0,38,0.00,,BKN150,0.00,VWS V14.01,2013-02-01 21:37:00,
2013-02-01 15:40:00,34.6,11.0,30.25,SSW,205,9.0,14.0,37,0.00,,SCT250,0.00,VWS V14.01,2013-02-01 21:40:00,
2013-02-01 15:42:00,34.6,11.0,30.25,SSE,153,11.0,17.0,37,0.00,,BKN150,0.00,VWS V14.01,2013-02-01 21:42:00,
2013-02-01 15:45:00,34.6,11.0,30.25,South,172,11.0,17.0,37,0.00,,SCT250,0.00,VWS V14.01,2013-02-01 21:45:00,
2013-02-01 15:47:00,34.6,11.6,30.25,SSW,208,9.0,12.0,38,0.00,,BKN150,0.00,VWS V14.01,2013-02-01 21:47:00,
2013-02-01 15:50:00,34.6,11.6,30.25,South,181,11.0,14.0,38,0.00,,SCT250,0.00,VWS V14.01,2013-02-01 21:50:00,
2013-02-01 15:52:00,34.6,11.0,30.25,SSE,149,5.0,12.0,37,0.00,,BKN150,0.00,VWS V14.01,2013-02-01 21:52:00,
2013-02-01 15:55:00,34.8,11.2,30.25,SSE,156,10.0,13.0,37,0.00,,SCT250,0.00,VWS V14.01,2013-02-01 21:55:00,
2013-02-01 15:57:00,34.9,11.3,30.25,SE,142,2.0,10.0,37,0.00,,BKN150,0.00,VWS V14.01,2013-02-01 21:57:00,
2013-02-01 16:00:00,35.0,11.4,30.25,SSW,193,4.0,10.0,37,0.00,,SCT250,0.00,VWS V14.01,2013-02-01 22:00:00,
2013-02-01 16:02:00,35.1,11.5,30.25,SSE,153,5.0,10.0,37,0.00,,BKN150,0.00,VWS V14.01,2013-02-01 22:02:00,
2013-02-01 16:05:00,35.2,11.6,30.25,WSW,255,2.0,15.0,37,0.00,,SCT250,0.00,VWS V14.01,2013-02-01 22:05:00,
2013-02-01 16:07:00,35.3,11.6,30.25,South,170,6.0,12.0,37,0.00,,BKN150,0.00,VWS V14.01,2013-02-01 22:07:00,
2013-02-01 16:10:00,35.4,11.7,30.24,SSE,160,8.0,12.0,37,0.00,,SCT250,0.00,VWS V14.01,2013-02-01 22:10:00,
2013-02-01 16:12:00,35.5,11.8,30.24,SSE,167,2.0,8.0,37,0.00,,BKN150,0.00,VWS V14.01,2013-02-01 22:12:00,
2013-02-01 16:15:00,35.8,12.7,30.24,SSW,194,6.0,8.0,38,0.00,,SCT250,0.00,VWS V14.01,2013-02-01 22:15:00,
2013-02-01 16:17:00,36.0,12.3,30.24,SSE,165,5.0,10.0,37,0.00,,BKN150,0.00,VWS V14.01,2013-02-01 22:17:00,
2013-02-01 16:20:00,36.2,12.4,30.24,SSE,159,3.0,10.0,37,0.00,,SCT250,0.00,VWS V14.01,2013-02-01 22:20:00,
2013-02-01 16:22:00,36.4,12.6,30.24,SW,214,8.0,10.0,37,0.00,,BKN150,0.00,VWS V14.01,2013-02-01 22:22:00,
2013-02-01 16:25:00,36.7,12.9,30.24,SSE,159,6.0,10.0,37,0.00,,SCT250,0.00,VWS V14.01,2013-02-01 22:25:00,
2013-02-01 16:27:00,36.8,12.4,30.23,SSE,155,6.0,13.0,36,0.00,,BKN150,0.00,VWS V14.01,2013-02-01 22:27:00,
2013-02-01 16:30:00,36.9,13.1,30.23,SSE,156,7.0,13.0,37,0.00,,SCT250,0.00,VWS V14.01,2013-02-01 22:30:00,
2013-02-01 16:32:00,36.9,12.4,30.23,SE,128,6.0,14.0,36,0.00,,BKN150,0.00,VWS V14.01,2013-02-01 22:32:00,
2013-02-01 16:35:00,36.9,12.4,30.23,SSE,155,9.0,15.0,36,0.00,,SCT250,0.00,VWS V14.01,2013-02-01 22:35:00,
2013-02-01 16:37:00,37.0,13.2,30.23,South,169,6.0,13.0,37,0.00,,BKN150,0.00,VWS V14.01,2013-02-01 22:37:00,
2013-02-01 16:40:00,37.1,13.2,30.23,SSW,210,9.0,13.0,37,0.00,,SCT250,0.00,VWS V14.01,2013-02-01 22:40:00,
2013-02-01 16:42:00,37.1,12.6,30.23,SSW,193,9.0,17.0,36,0.00,,BKN150,0.00,VWS V14.01,2013-02-01 22:42:00,
2013-02-01 16:45:00,37.1,13.2,30.23,ESE,118,7.0,17.0,37,0.00,,SCT250,0.00,VWS V14.01,2013-02-01 22:45:00,
2013-02-01 16:47:00,37.1,12.6,30.23,East,96,13.0,13.0,36,0.00,,BKN150,0.00,VWS V14.01,2013-02-01 22:47:00,
2013-02-01 16:50:00,37.2,13.3,30.23,SSE,164,7.0,13.0,37,0.00,,SCT250,0.00,VWS V14.01,2013-02-01 22:50:00,
2013-02-01 16:52:00,37.2,13.3,30.22,SE,135,6.0,10.0,37,0.00,,BKN150,0.00,VWS V14.01,2013-02-01 22:52:00,
2013-02-01 16:55:00,37.3,13.4,30.23,SSE,162,11.0,12.0,37,0.00,,SCT250,0.00,VWS V14.01,2013-02-01 22:55:00,
2013-02-01 16:57:00,37.2,13.3,30.22,SE,130,5.0,16.0,37,0.00,,BKN150,0.00,VWS V14.01,2013-02-01 22:57:00,
2013-02-01 17:00:00,37.2,13.3,30.23,SSE,161,3.0,16.0,37,0.00,,SCT250,0.00,VWS V14.01,2013-02-01 23:00:00,
2013-02-01 17:02:00,37.3,13.4,30.23,ESE,104,9.0,12.0,37,0.00,,BKN150,0.00,VWS V14.01,2013-02-01 23:02:00,
2013-02-01 17:05:00,37.2,13.3,30.23,South,173,9.0,14.0,37,0.00,,SCT250,0.00,VWS V14.01,2013-02-01 23:05:00,
2013-02-01 17:07:00,37.1,13.2,30.23,SSE,163,10.0,16.0,37,0.00,,BKN150,0.00,VWS V14.01,2013-02-01 23:07:00,
2013-02-01 17:10:00,36.9,13.1,30.23,SSE,159,10.0,17.0,37,0.00,,SCT250,0.00,VWS V14.01,2013-02-01 23:10:00,
2013-02-01 17:12:00,36.8,13.0,30.23,West,266,9.0,17.0,37,0.00,,BKN150,0.00,VWS V14.01,2013-02-01 23:12:00,
2013-02-01 17:15:00,36.7,12.9,30.23,SSE,166,7.0,17.0,37,0.00,,SCT250,0.00,VWS V14.01,2013-02-01 23:15:00,
2013-02-01 17:17:00,36.6,13.4,30.23,SSE,165,8.0,11.0,38,0.00,,BKN150,0.00,VWS V14.01,2013-02-01 23:17:00,
2013-02-01 17:20:00,36.6,13.4,30.23,South,182,5.0,11.0,38,0.00,,SCT250,0.00,VWS V14.01,2013-02-01 23:20:00,
2013-02-01 17:21:00,36.6,13.4,30.23,SSE,162,12.0,12.0,38,0.00,,BKN150,0.00,VWS V14.01,2013-02-01 23:21:00,
2013-02-01 17:25:00,36.4,13.2,30.23,SE,131,4.0,15.0,38,0.00,,SCT250,0.00,VWS V14.01,2013-02-01 23:25:00,
2013-02-01 17:26:00,36.4,13.2,30.23,SSE,150,5.0,7.0,38,0.00,,BKN150,0.00,VWS V14.01,2013-02-01 23:26:00,
2013-02-01 17:30:00,36.2,13.1,30.23,ESE,118,6.0,9.0,38,0.00,,SCT250,0.00,VWS V14.01,2013-02-01 23:30:00,
2013-02-01 17:31:00,36.1,13.6,30.23,SSE,156,9.0,13.0,39,0.00,,BKN150,0.00,VWS V14.01,2013-02-01 23:31:00,
2013-02-01 17:35:00,36.0,13.5,30.23,SSE,159,5.0,13.0,39,0.00,,SCT250,0.00,VWS V14.01,2013-02-01 23:35:00,
2013-02-01 17:36:00,36.0,13.5,30.23,ESE,121,3.0,6.0,39,0.00,,SCT250,0.00,VWS V14.01,2013-02-01 23:36:00,
2013-02-01 17:40:00,35.9,13.4,30.23,SSE,157,2.0,7.0,39,0.00,,SCT250,0.00,VWS V14.01,2013-02-01 23:40:00,
2013-02-01 17:41:00,35.8,13.3,30.23,SSE,164,4.0,4.0,39,0.00,,SCT250,0.00,VWS V14.01,2013-02-01 23:41:00,
2013-02-01 17:45:00,35.7,13.2,30.23,SE,141,3.0,8.0,39,0.00,,SCT250,0.00,VWS V14.01,2013-02-01 23:45:00,
2013-02-01 17:46:00,35.5,13.6,30.23,SSE,166,3.0,4.0,40,0.00,,SCT250,0.00,VWS V14.01,2013-02-01 23:46:00,
2013-02-01 17:50:00,35.3,13.4,30.23,SE,138,2.0,4.0,40,0.00,,SCT250,0.00,VWS V14.01,2013-02-01 23:50:00,
2013-02-01 17:51:00,35.2,13.3,30.23,SE,145,2.0,3.0,40,0.00,,SCT250,0.00,VWS V14.01,2013-02-01 23:51:00,
2013-02-01 17:55:00,34.9,13.0,30.23,SE,135,4.0,5.0,40,0.00,,SCT250,0.00,VWS V14.01,2013-02-01 23:55:00,
2013-02-01 17:56:00,34.8,13.5,30.23,SE,140,2.0,6.0,41,0.00,,SCT250,0.00,VWS V14.01,2013-02-01 23:56:00,
2013-02-01 18:00:00,34.6,13.3,30.23,SSE,163,5.0,9.0,41,0.00,,SCT250,0.00,VWS V14.01,2013-02-02 00:00:00,
2013-02-01 18:01:00,34.6,13.3,30.22,SSE,160,2.0,5.0,41,0.00,,SCT250,0.00,VWS V14.01,2013-02-02 00:01:00,
2013-02-01 18:05:00,34.4,13.1,30.22,SSE,165,4.0,6.0,41,0.00,,SCT250,0.00,VWS V14.01,2013-02-02 00:05:00,
2013-02-01 18:06:00,34.2,13.0,30.22,SE,139,3.0,8.0,41,0.00,,SCT250,0.00,VWS V14.01,2013-02-02 00:06:00,
2013-02-01 18:10:00,34.1,13.4,30.23,ESE,103,2.0,8.0,42,0.00,,SCT250,0.00,VWS V14.01,2013-02-02 00:10:00,
2013-02-01 18:11:00,34.0,13.3,30.22,ESE,117,3.0,4.0,42,0.00,,SCT250,0.00,VWS V14.01,2013-02-02 00:11:00,
2013-02-01 18:15:00,33.9,13.2,30.23,SE,132,2.0,5.0,42,0.00,,SCT250,0.00,VWS V14.01,2013-02-02 00:15:00,
2013-02-01 18:16:00,33.8,13.1,30.23,SSE,162,2.0,5.0,42,0.00,,SCT250,0.00,VWS V14.01,2013-02-02 00:16:00,
2013-02-01 18:20:00,33.7,13.1,30.23,SSE,148,2.0,5.0,42,0.00,,SCT250,0.00,VWS V14.01,2013-02-02 00:20:00,
2013-02-01 18:21:00,33.6,13.0,30.23,SE,142,2.0,4.0,42,0.00,,SCT250,0.00,VWS V14.01,2013-02-02 00:21:00,
2013-02-01 18:25:00,33.5,13.4,30.23,South,183,2.0,4.0,43,0.00,,SCT250,0.00,VWS V14.01,2013-02-02 00:25:00,
2013-02-01 18:26:00,33.4,13.3,30.23,SSE,162,2.0,3.0,43,0.00,,SCT250,0.00,VWS V14.01,2013-02-02 00:26:00,
2013-02-01 18:30:00,33.2,13.1,30.23,SE,145,2.0,3.0,43,0.00,,SCT250,0.00,VWS V14.01,2013-02-02 00:30:00,
2013-02-01 18:31:00,33.1,13.1,30.23,SE,125,1.0,3.0,43,0.00,,SCT250,0.00,VWS V14.01,2013-02-02 00:31:00,
2013-02-01 18:35:00,33.0,13.0,30.23,SE,137,2.0,3.0,43,0.00,,SCT250,0.00,VWS V14.01,2013-02-02 00:35:00,
2013-02-01 18:36:00,32.9,12.9,30.23,ESE,122,3.0,3.0,43,0.00,,SCT250,0.00,VWS V14.01,2013-02-02 00:36:00,
2013-02-01 18:40:00,32.9,12.9,30.23,SE,135,3.0,3.0,43,0.00,,SCT250,0.00,VWS V14.01,2013-02-02 00:40:00,
2013-02-01 18:41:00,32.9,12.9,30.23,SE,139,2.0,3.0,43,0.00,,SCT250,0.00,VWS V14.01,2013-02-02 00:41:00,
2013-02-01 18:45:00,32.8,13.3,30.23,ESE,123,2.0,3.0,44,0.00,,SCT250,0.00,VWS V14.01,2013-02-02 00:45:00,
2013-02-01 18:46:00,32.7,13.2,30.23,SE,131,1.0,3.0,44,0.00,,SCT250,0.00,VWS V14.01,2013-02-02 00:46:00,
2013-02-01 18:50:00,32.6,13.1,30.23,ESE,121,2.0,3.0,44,0.00,,SCT250,0.00,VWS V14.01,2013-02-02 00:50:00,
2013-02-01 18:55:00,32.5,13.0,30.23,SE,135,2.0,4.0,44,0.00,,SCT250,0.00,VWS V14.01,2013-02-02 00:55:00,
2013-02-01 19:00:00,32.3,12.8,30.24,SE,135,1.0,2.0,44,0.00,,SCT250,0.00,VWS V14.01,2013-02-02 01:00:00,
2013-02-01 19:05:00,32.0,13.1,30.24,SE,135,2.0,3.0,45,0.00,,SCT250,0.00,VWS V14.01,2013-02-02 01:05:00,
2013-02-01 19:10:00,31.9,12.5,30.24,SE,135,2.0,3.0,44,0.00,,SCT250,0.00,VWS V14.01,2013-02-02 01:10:00,
2013-02-01 19:15:00,31.7,12.8,30.24,SE,135,1.0,3.0,45,0.00,,SCT250,0.00,VWS V14.01,2013-02-02 01:15:00,
2013-02-01 19:20:00,31.6,12.7,30.24,SE,135,1.0,2.0,45,0.00,,SCT250,0.00,VWS V14.01,2013-02-02 01:20:00,
2013-02-01 19:25:00,31.4,12.5,30.24,SE,135,2.0,3.0,45,0.00,,SCT250,0.00,VWS V14.01,2013-02-02 01:25:00,
2013-02-01 19:30:00,31.3,12.4,30.23,SE,135,1.0,2.0,45,0.00,,SCT250,0.00,VWS V14.01,2013-02-02 01:30:00,
2013-02-01 19:35:00,31.1,12.8,30.23,SE,135,2.0,3.0,46,0.00,,SCT250,0.00,VWS V14.01,2013-02-02 01:35:00,
2013-02-01 19:40:00,30.9,12.6,30.23,SE,135,2.0,3.0,46,0.00,,SCT250,0.00,VWS V14.01,2013-02-02 01:40:00,
2013-02-01 19:45:00,30.9,12.6,30.23,SE,135,2.0,3.0,46,0.00,,SCT250,0.00,VWS V14.01,2013-02-02 01:45:00,
2013-02-01 19:50:00,30.9,12.6,30.23,SE,135,2.0,3.0,46,0.00,,SCT250,0.00,VWS V14.01,2013-02-02 01:50:00,
2013-02-01 19:55:00,30.9,12.6,30.23,SE,135,2.0,3.0,46,0.00,,SCT250,0.00,VWS V14.01,2013-02-02 01:55:00,
2013-02-01 20:00:00,30.9,12.6,30.23,SE,135,1.0,2.0,46,0.00,,SCT250,0.00,VWS V14.01,2013-02-02 02:00:00,
2013-02-01 20:05:00,30.8,12.5,30.23,SE,135,2.0,3.0,46,0.00,,SCT250,0.00,VWS V14.01,2013-02-02 02:05:00,
2013-02-01 20:10:00,30.7,12.9,30.22,SE,135,2.0,3.0,47,0.00,,SCT250,0.00,VWS V14.01,2013-02-02 02:10:00,
2013-02-01 20:15:00,30.7,12.9,30.22,SE,135,2.0,4.0,47,0.00,,SCT250,0.00,VWS V14.01,2013-02-02 02:15:00,
2013-02-01 20:20:00,30.6,12.8,30.22,SE,135,3.0,5.0,47,0.00,,SCT250,0.00,VWS V14.01,2013-02-02 02:20:00,
2013-02-01 20:25:00,30.6,12.8,30.22,SE,135,2.0,5.0,47,0.00,,SCT250,0.00,VWS V14.01,2013-02-02 02:25:00,
2013-02-01 20:30:00,30.5,12.7,30.21,SE,135,2.0,5.0,47,0.00,,SCT250,0.00,VWS V14.01,2013-02-02 02:30:00,
2013-02-01 20:35:00,30.5,12.7,30.21,SE,135,3.0,4.0,47,0.00,,SCT250,0.00,VWS V14.01,2013-02-02 02:35:00,
2013-02-01 20:40:00,30.5,12.7,30.22,SE,135,2.0,5.0,47,0.00,,SCT250,0.00,VWS V14.01,2013-02-02 02:40:00,
2013-02-01 20:45:00,30.4,13.1,30.22,SSE,158,2.0,3.0,48,0.00,,SCT250,0.00,VWS V14.01,2013-02-02 02:45:00,
2013-02-01 20:50:00,30.4,13.1,30.22,SSE,158,2.0,3.0,48,0.00,,SCT250,0.00,VWS V14.01,2013-02-02 02:50:00,
2013-02-01 20:55:00,30.3,13.4,30.23,SSE,158,2.0,3.0,49,0.00,,SCT250,0.00,VWS V14.01,2013-02-02 02:55:00,
2013-02-01 21:00:00,30.3,13.4,30.22,SE,135,2.0,4.0,49,0.00,,SCT250,0.00,VWS V14.01,2013-02-02 03:00:00,
2013-02-01 21:05:00,31.4,14.0,30.22,SSE,156,3.0,5.0,48,0.00,,FEW085,0.00,VWS V14.01,2013-02-02 03:05:00,
2013-02-01 21:10:00,30.4,13.5,30.22,SE,135,2.0,3.0,49,0.00,,SCT250,0.00,VWS V14.01,2013-02-02 03:10:00,
2013-02-01 21:15:00,30.7,13.8,30.22,SE,128,3.0,4.0,49,0.00,,FEW250,0.00,VWS V14.01,2013-02-02 03:15:00,
2013-02-01 21:20:00,30.9,14.0,30.22,ESE,114,2.0,3.0,49,0.00,,FEW250,0.00,VWS V14.01,2013-02-02 03:20:00,
2013-02-01 21:25:00,31.1,13.7,30.22,ESE,114,3.0,5.0,48,0.00,,FEW250,0.00,VWS V14.01,2013-02-02 03:25:00,
2013-02-01 21:30:00,31.2,13.8,30.23,SSE,160,1.0,2.0,48,0.00,,FEW250,0.00,VWS V14.01,2013-02-02 03:30:00,
2013-02-01 21:35:00,31.3,13.9,30.23,SSE,155,4.0,5.0,48,0.00,,FEW180,0.00,VWS V14.01,2013-02-02 03:35:00,
2013-02-01 21:40:00,31.3,13.9,30.23,SE,136,2.0,2.0,48,0.00,,FEW180,0.00,VWS V14.01,2013-02-02 03:40:00,
2013-02-01 21:45:00,31.3,13.9,30.23,SE,139,2.0,2.0,48,0.00,,FEW180,0.00,VWS V14.01,2013-02-02 03:45:00,
2013-02-01 21:50:00,31.3,13.9,30.23,SSW,197,4.0,4.0,48,0.00,,FEW180,0.00,VWS V14.01,2013-02-02 03:50:00,
2013-02-01 21:55:00,31.3,13.9,30.23,South,186,4.0,4.0,48,0.00,,FEW180,0.00,VWS V14.01,2013-02-02 03:55:00,
2013-02-01 22:00:00,31.4,14.0,30.22,SE,142,2.0,3.0,48,0.00,,FEW180,0.00,VWS V14.01,2013-02-02 04:00:00,
2013-02-01 22:05:00,31.4,14.0,30.22,ESE,123,4.0,4.0,48,0.00,,FEW180,0.00,VWS V14.01,2013-02-02 04:05:00,
2013-02-01 22:10:00,31.4,14.5,30.22,SSE,155,4.0,4.0,49,0.00,,FEW180,0.00,VWS V14.01,2013-02-02 04:10:00,
2013-02-01 22:15:00,31.5,14.1,30.22,SE,139,3.0,5.0,48,0.00,,FEW180,0.00,VWS V14.01,2013-02-02 04:15:00,
2013-02-01 22:20:00,31.5,14.1,30.22,SSE,165,3.0,4.0,48,0.00,,FEW180,0.00,VWS V14.01,2013-02-02 04:20:00,
2013-02-01 22:25:00,31.5,14.1,30.22,South,176,5.0,5.0,48,0.00,,FEW180,0.00,VWS V14.01,2013-02-02 04:25:00,
2013-02-01 22:30:00,31.4,14.0,30.22,SSE,167,5.0,6.0,48,0.00,,FEW180,0.00,VWS V14.01,2013-02-02 04:30:00,
2013-02-01 22:35:00,31.4,14.0,30.22,SSE,165,5.0,5.0,48,0.00,,BKN120,0.00,VWS V14.01,2013-02-02 04:35:00,
2013-02-01 22:40:00,31.3,14.4,30.22,SSE,163,3.0,3.0,49,0.00,,BKN120,0.00,VWS V14.01,2013-02-02 04:40:00,
2013-02-01 22:45:00,31.2,14.3,30.22,SSE,164,5.0,5.0,49,0.00,,BKN120,0.00,VWS V14.01,2013-02-02 04:45:00,
2013-02-01 22:50:00,31.1,14.2,30.22,SE,146,2.0,2.0,49,0.00,,BKN120,0.00,VWS V14.01,2013-02-02 04:50:00,
2013-02-01 22:55:00,31.2,14.3,30.22,SSE,158,2.0,2.0,49,0.00,,BKN120,0.00,VWS V14.01,2013-02-02 04:55:00,
2013-02-01 23:00:00,31.0,14.1,30.22,SSE,156,2.0,3.0,49,0.00,,BKN120,0.00,VWS V14.01,2013-02-02 05:00:00,
2013-02-01 23:05:00,30.9,14.5,30.22,SE,139,3.0,4.0,50,0.00,,BKN120,0.00,VWS V14.01,2013-02-02 05:05:00,
2013-02-01 23:10:00,30.8,14.4,30.22,SE,139,1.0,3.0,50,0.00,,BKN120,0.00,VWS V14.01,2013-02-02 05:10:00,
2013-02-01 23:15:00,30.6,14.2,30.22,South,184,4.0,4.0,50,0.00,,BKN120,0.00,VWS V14.01,2013-02-02 05:15:00,
2013-02-01 23:20:00,30.4,14.4,30.22,SSE,166,2.0,4.0,51,0.00,,BKN120,0.00,VWS V14.01,2013-02-02 05:20:00,
2013-02-01 23:25:00,30.3,14.4,30.23,SE,142,2.0,3.0,51,0.00,,BKN120,0.00,VWS V14.01,2013-02-02 05:25:00,
2013-02-01 23:30:00,30.1,14.2,30.22,SSE,153,3.0,5.0,51,0.00,,BKN120,0.00,VWS V14.01,2013-02-02 05:30:00,
2013-02-01 23:35:00,30.0,14.1,30.22,SSW,198,4.0,4.0,51,0.00,,SCT120,0.00,VWS V14.01,2013-02-02 05:35:00,
2013-02-01 23:40:00,29.9,14.4,30.22,SSW,198,4.0,5.0,52,0.00,,SCT120,0.00,VWS V14.01,2013-02-02 05:40:00,
2013-02-01 23:45:00,30.0,14.5,30.22,SSW,200,3.0,4.0,52,0.00,,SCT120,0.00,VWS V14.01,2013-02-02 05:45:00,
2013-02-01 23:50:00,30.0,14.5,30.23,SSW,201,3.0,4.0,52,0.00,,SCT120,0.00,VWS V14.01,2013-02-02 05:50:00,
2013-02-01 23:55:00,29.8,14.3,30.22,SSW,198,2.0,2.0,52,0.00,,SCT120,0.00,VWS V14.01,2013-02-02 05:55:00,